This is the latest recevied weather packets stored in our database for station/object WA7CUG. If no packets are shown the sender has not sent any weather packets the latest 10 day(s).
| Time | Temp. | Humidity | Pressure | Rain* | Wind** | Luminosity | Snow |
|---|---|---|---|---|---|---|---|
| 1777952766 | 23.33° C | 35% | 1007.7 hPa | 0 mm | - | 0 W/m² | - |
| 1777952463 | 23.89° C | 35% | 1007.4 hPa | 0 mm | - | 0 W/m² | - |
| 1777952159 | 23.89° C | 34% | 1007.4 hPa | 0 mm | - | 0 W/m² | - |
| 1777951858 | 23.89° C | 34% | 1007.3 hPa | 0 mm | - | 1 W/m² | - |
| 1777951555 | 24.44° C | 33% | 1007.2 hPa | 0 mm | - | 1 W/m² | - |
| 1777951251 | 24.44° C | 33% | 1007.2 hPa | 0 mm | - | 2 W/m² | - |
| 1777950949 | 24.44° C | 33% | 1007.1 hPa | 0 mm | - | 3 W/m² | - |
| 1777950645 | 24.44° C | 35% | 1007.1 hPa | 0 mm | - | 5 W/m² | - |
| 1777950342 | 24.44° C | 34% | 1007.1 hPa | 0 mm | - | 8 W/m² | - |
| 1777950038 | 25° C | 33% | 1007 hPa | 0 mm | - | 10 W/m² | - |
| 1777949734 | 24.44° C | 33% | 1006.9 hPa | 0 mm | - | 13 W/m² | - |
| 1777949433 | 24.44° C | 34% | 1006.9 hPa | 0 mm | - | 15 W/m² | - |
| 1777949130 | 25° C | 34% | 1006.9 hPa | 0 mm | - | 17 W/m² | - |
| 1777948827 | 25° C | 33% | 1006.7 hPa | 0 mm | - | 20 W/m² | - |
| 1777948524 | 25.56° C | 33% | 1006.7 hPa | 0 mm | - | 24 W/m² | - |
| 1777948221 | 26.11° C | 32% | 1006.6 hPa | 0 mm | - | 38 W/m² | - |
| 1777947919 | 26.11° C | 35% | 1006.7 hPa | 0 mm | - | 51 W/m² | - |
| 1777947616 | 26.67° C | 34% | 1006.8 hPa | 0 mm | - | 59 W/m² | - |
| 1777947312 | 26.67° C | 35% | 1006.5 hPa | 0 mm | - | 68 W/m² | - |
| 1777947009 | 27.22° C | 32% | 1006.6 hPa | 0 mm | - | 76 W/m² | - |
| 1777946703 | 27.78° C | 33% | 1006.6 hPa | 0 mm | - | 87 W/m² | - |
| 1777946401 | 27.78° C | 33% | 1006.6 hPa | 0 mm | - | 98 W/m² | - |
| 1777946098 | 28.33° C | 29% | 1006.8 hPa | 0 mm | - | 109 W/m² | - |
| 1777945795 | 28.33° C | 29% | 1006.7 hPa | 0 mm | - | 118 W/m² | - |
| 1777945492 | 28.89° C | 28% | 1006.8 hPa | 0 mm | - | 131 W/m² | - |
* Rain latest hour (hover to see other rain measurements)
** Current wind speed in m/s (hover to see current wind gust speed)